CAPE
0 0 nan nan nan nan nan nan nan nan nan nan nan nan nan 2 27 27 39 31 31 13 6 3 3 3 2 9 11 11 9 8 5 5 5 5 4 4 4 5 5 2 nan nan nan nan nan nan nan nan nan nan nan nan nan nan nan 33 45 21 21 25 12 0 0 nan nan nan nan nan 22 157 256 256 346 414 594 594 529 529 529 371 279 198 198 154
0 nan nan nan nan nan nan nan nan nan nan nan nan nan nan 1 30 30 29 23 23 14 7 2 2 0 nan 4 10 10 8 7 6 6 5 6 4 4 2 4 4 2 nan nan nan nan nan nan nan nan nan nan nan nan nan nan nan 4 27 21 21 20 18 6 6 0 nan nan nan nan 0 48 193 193 253 324 394 394 398 441 441 314 260 188 188 149
5 3 1 nan nan nan nan nan nan nan nan nan nan nan nan 11 37 37 32 16 16 12 4 1 1 0 nan 1 12 12 8 7 6 6 4 4 3 3 2 3 3 3 nan nan nan nan nan nan nan nan nan nan nan nan nan nan nan nan nan 0 0 2 1 0 0 nan nan nan nan nan nan 2 95 95 174 211 206 206 201 189 189 193 179 163 163 141
6 4 3 1 1 nan nan nan nan nan nan nan nan nan nan 34 45 45 32 11 11 13 2 nan nan nan nan 0 7 7 9 7 5 5 3 2 3 3 2 2 2 2 0 nan nan nan nan nan nan nan nan nan nan nan nan nan nan nan nan nan nan nan nan nan nan nan nan nan nan nan nan nan 3 3 57 78 58 58 45 25 25 66 133 161 161 165
2 4 3 4 4 1 nan nan nan nan nan nan nan nan 35 60 35 35 22 11 11 6 nan nan nan nan nan nan 1 1 7 8 5 5 1 1 2 2 3 2 2 2 nan nan nan nan nan nan nan nan nan nan nan nan nan nan nan nan nan nan nan nan nan nan nan nan nan nan nan nan nan nan nan nan nan nan 1 1 9 34 34 40 93 153 153 189
1 2 3 4 4 3 nan nan nan nan nan nan 2 2 17 18 11 11 2 2 2 2 nan nan nan nan nan nan nan nan 4 7 3 3 1 1 2 2 3 3 3 2 nan nan nan nan nan nan nan nan nan nan nan nan nan nan nan nan nan nan nan nan nan nan nan nan nan nan nan nan nan nan nan nan nan nan nan nan nan 31 31 59 61 112 112 202
1 1 4 5 5 5 nan nan nan nan nan nan 0 0 0 1 0 0 0 1 1 2 nan nan nan nan nan nan nan nan 2 7 3 3 1 0 1 1 3 4 4 3 nan nan nan nan nan nan nan nan nan nan nan nan nan nan nan nan nan nan nan nan nan nan nan nan nan nan nan nan nan nan nan nan nan nan nan nan nan nan nan 51 43 55 55 137
5 6 8 16 16 30 17 nan nan nan 1 9 2 2 nan 0 2 2 3 2 2 nan nan nan nan nan nan nan nan nan nan nan nan nan nan nan 0 0 0 2 2 8 0 nan nan nan nan nan nan nan nan nan nan nan nan nan nan nan nan nan nan nan nan nan nan nan nan nan nan nan nan nan nan nan nan nan nan nan nan nan nan nan 5 12 12 53
7 8 9 10 10 24 30 21 7 7 17 6 nan nan 2 6 9 9 10 13 13 9 5 2 2 nan nan nan nan nan nan nan nan nan nan nan nan nan nan nan nan 4 1 nan nan nan nan nan nan nan nan nan nan nan nan nan nan nan nan nan nan nan nan nan nan nan nan nan nan nan nan nan nan nan nan nan nan nan nan nan nan nan nan nan nan 22
6 7 5 12 12 26 17 19 26 26 12 6 14 14 21 8 4 4 3 3 3 10 13 6 6 1 nan nan nan nan nan nan nan nan nan nan nan nan nan nan nan 4 2 nan nan nan nan nan nan nan nan nan nan nan nan nan nan nan nan nan nan nan nan nan nan nan nan nan nan nan nan nan nan nan nan nan nan nan nan nan nan nan nan nan nan nan
4 5 7 14 14 19 11 9 8 8 4 3 3 3 3 4 3 3 3 3 3 5 11 8 8 0 nan nan nan nan nan nan nan nan nan nan nan nan nan nan nan 2 1 nan nan nan nan nan nan nan nan nan nan nan nan nan nan nan nan nan nan nan nan nan nan nan nan nan nan nan nan nan nan nan nan nan nan nan nan nan nan nan nan nan nan nan
3 3 4 12 12 12 6 5 6 6 5 1 1 1 1 3 7 7 4 5 5 6 9 9 9 0 nan nan nan nan nan nan nan nan nan nan nan nan nan 0 0 10 16 1 1 nan nan nan nan nan nan nan nan nan nan nan nan nan nan nan nan nan nan nan nan nan nan nan nan nan nan nan nan nan nan nan nan nan nan nan nan nan nan nan nan nan
2 2 3 5 5 8 6 4 3 3 3 2 2 2 1 2 5 5 7 5 5 6 6 8 8 3 nan nan nan nan nan nan nan nan nan nan nan nan nan nan nan 26 52 26 26 3 nan nan nan nan nan nan nan nan nan nan nan nan nan nan nan nan nan nan nan nan nan nan nan nan nan nan nan nan nan nan nan nan nan nan nan nan nan nan nan nan
1 1 1 2 2 4 5 3 3 3 3 4 4 4 7 7 4 4 4 3 3 2 4 5 5 3 nan nan nan nan nan nan nan nan nan nan nan nan nan nan nan 19 61 37 37 14 nan nan nan 0 nan nan nan nan nan nan nan nan nan nan nan nan nan nan nan nan nan nan nan nan nan nan nan nan nan nan nan nan nan nan nan nan nan nan nan nan
1 1 1 2 2 3 5 5 3 3 5 6 8 8 8 4 2 2 3 2 2 1 2 2 2 0 0 nan nan nan nan nan nan nan nan nan nan nan nan nan nan 10 48 39 39 19 nan nan nan 0 0 0 nan nan nan nan nan nan nan nan nan nan nan nan nan nan nan nan nan nan nan nan nan nan nan nan nan nan nan nan nan nan nan nan nan nan
2 2 1 1 1 2 4 4 3 3 4 6 7 7 6 4 3 3 3 3 3 3 5 5 5 2 2 nan nan nan nan nan nan nan nan nan nan nan nan nan nan 14 49 41 41 23 1 nan nan 0 0 nan nan nan nan nan nan nan nan nan nan nan nan nan nan nan nan nan nan nan nan nan nan nan nan nan nan nan nan nan nan nan nan nan nan nan
2 2 2 1 1 1 2 3 5 5 4 5 6 6 6 6 4 4 3 3 3 4 5 8 8 10 15 3 nan nan nan nan nan nan nan nan nan nan nan nan nan 15 51 42 42 21 6 nan nan 0 0 nan nan nan nan nan nan nan nan nan nan nan nan nan nan nan nan nan nan nan nan nan nan nan nan nan nan nan nan nan nan nan nan nan nan nan
3 3 2 1 1 1 1 3 5 5 4 5 4 4 6 5 3 3 2 3 3 4 5 6 6 8 20 10 nan nan 3 31 27 27 6 nan nan nan nan nan nan 7 38 34 34 21 7 1 1 nan nan nan nan nan nan nan nan nan nan nan nan nan nan nan nan nan nan nan nan nan nan nan nan nan nan nan nan nan nan nan nan nan nan nan nan nan
2 3 3 2 2 1 1 4 4 4 5 6 5 5 4 4 2 2 1 2 2 3 4 5 5 8 9 9 9 9 8 13 13 13 0 nan nan nan nan nan nan 3 12 18 18 13 6 1 1 nan nan nan nan nan nan nan nan nan nan nan nan nan nan nan nan nan nan nan nan nan nan nan nan nan nan nan nan nan nan nan nan nan nan nan nan nan
4 4 5 3 3 2 3 6 9 9 10 10 8 8 6 4 2 2 1 1 1 2 3 5 5 7 7 4 3 3 1 5 8 8 0 nan nan nan nan nan nan 2 3 0 0 4 12 1 1 nan nan nan nan nan nan nan nan nan nan nan nan nan nan nan nan nan nan nan nan nan nan nan nan nan nan nan nan nan nan nan nan nan nan nan nan nan
5 4 5 4 4 2 3 10 16 16 16 15 10 10 7 4 1 1 1 1 1 1 2 4 4 5 5 2 1 1 2 4 6 6 2 nan nan nan nan nan nan 2 2 nan nan 0 17 10 10 nan nan nan nan nan nan nan nan nan nan nan nan nan nan nan nan nan nan nan nan nan nan nan nan nan nan nan nan nan nan nan nan nan nan nan nan nan
6 4 2 2 2 4 13 16 23 23 23 16 11 11 8 4 2 2 1 1 1 1 1 2 2 3 5 3 2 2 3 3 4 4 2 nan nan nan nan nan nan 1 1 nan nan 0 20 18 18 0 nan nan nan nan nan nan nan nan nan nan nan nan nan nan nan nan nan nan nan nan nan nan nan nan nan nan nan nan nan nan nan nan nan nan nan nan
6 6 3 2 2 8 15 20 20 20 23 19 18 18 13 6 3 3 2 2 2 2 1 1 1 2 3 2 1 1 2 3 5 5 2 nan nan nan nan nan nan 0 0 nan nan 0 27 22 22 6 nan nan nan nan nan nan nan nan nan nan nan nan nan nan nan nan nan nan nan nan nan nan nan nan nan nan nan nan nan nan nan nan nan nan nan nan
6 5 6 9 9 12 18 21 21 21 19 21 26 26 17 6 3 3 3 3 3 4 3 3 3 2 1 1 1 1 1 1 5 5 0 nan nan nan nan nan nan 1 nan nan nan 0 20 17 17 6 nan nan nan nan nan nan nan nan nan nan nan nan nan nan nan nan nan nan nan nan nan nan nan nan nan nan nan nan nan nan nan nan nan nan nan nan
5 7 10 13 13 28 24 19 21 21 20 21 23 23 5 2 1 1 1 2 2 2 3 4 4 3 2 2 2 2 nan 0 4 4 nan nan nan nan nan nan nan 6 nan nan nan nan 12 8 8 3 1 nan nan nan nan nan nan nan nan nan nan nan nan nan nan nan nan nan nan nan nan nan nan nan nan nan nan nan nan nan nan nan nan nan nan nan
23 20 18 31 31 55 51 46 43 43 40 26 18 18 1 nan nan nan nan 0 0 0 0 1 1 2 3 4 1 1 nan nan nan nan nan nan nan nan nan nan nan 6 nan nan nan nan 12 8 8 1 2 nan nan nan nan nan nan nan nan nan nan nan nan nan nan nan nan nan nan nan nan nan nan nan nan nan nan nan nan nan nan nan nan nan nan nan
47 47 52 54 54 51 46 41 43 43 56 53 25 25 1 nan nan nan nan nan nan 0 0 0 0 1 3 5 2 2 nan nan nan nan nan nan nan nan nan nan nan nan nan nan nan nan 15 17 17 5 0 nan nan nan nan nan nan nan nan nan nan nan nan nan nan nan nan nan nan nan nan nan nan nan nan nan nan nan nan nan nan nan nan nan nan nan
34 35 36 36 36 35 33 30 34 34 43 55 55 55 7 nan 0 0 0 0 0 0 0 0 0 1 3 5 5 5 0 1 0 0 nan nan nan nan nan nan nan nan nan nan nan nan 0 7 7 5 1 nan nan nan nan nan nan nan nan nan nan nan nan nan nan nan nan nan nan nan nan nan nan nan nan nan nan nan nan nan nan nan nan nan nan nan
23 24 24 25 25 23 23 18 21 21 34 46 47 47 10 nan 0 0 0 0 0 0 0 0 0 1 2 3 2 2 1 nan 0 0 2 nan nan nan nan nan nan nan nan nan nan nan nan nan nan nan nan nan nan nan nan nan nan nan nan nan nan nan nan nan nan nan nan nan nan nan nan nan nan nan nan nan nan nan nan nan nan nan nan nan nan nan
3 10 10 13 13 13 9 3 11 11 24 30 28 28 13 0 0 0 1 1 1 1 0 0 0 1 1 1 1 1 nan 0 0 0 2 nan nan nan nan nan nan nan nan nan nan nan nan nan nan nan nan nan nan nan nan nan nan nan nan nan nan nan nan nan nan nan nan nan nan nan nan nan nan nan nan nan nan nan nan nan nan nan nan nan nan nan
nan nan nan nan nan nan nan nan 2 2 12 18 13 13 6 0 0 0 1 2 2 1 1 0 0 0 1 1 2 2 nan 0 2 2 1 0 nan nan nan nan nan nan nan nan nan nan nan nan nan nan nan nan nan nan nan nan nan nan nan nan nan nan nan nan nan nan nan nan nan nan nan nan nan nan nan nan nan nan nan nan nan nan nan nan nan nan
nan nan nan nan nan nan nan nan nan nan nan nan nan nan 1 1 1 1 nan 1 1 1 0 0 0 0 1 1 0 0 2 1 3 3 1 3 4 4 nan nan nan nan nan nan nan nan nan nan nan nan nan nan nan nan nan nan nan nan nan nan nan nan nan nan nan nan nan nan nan nan nan nan nan nan nan nan nan nan nan nan nan nan nan nan nan nan
nan nan nan nan nan nan nan nan nan nan nan nan nan nan nan nan 1 1 0 nan nan 0 0 1 1 0 0 0 0 0 0 0 5 5 4 2 6 6 nan nan nan nan nan nan nan nan nan nan nan nan nan nan nan nan nan nan nan nan nan nan nan nan nan nan nan nan nan nan nan nan nan nan nan nan nan nan nan nan nan nan nan nan nan nan nan nan
nan nan nan nan nan nan nan nan nan nan nan nan nan nan nan nan nan nan nan nan nan nan 0 0 0 0 0 0 nan nan 0 1 6 6 5 1 7 7 4 nan nan nan nan nan nan nan nan nan nan nan nan nan nan nan nan nan nan nan nan nan nan nan nan nan nan nan nan nan nan nan nan nan nan nan nan nan nan nan nan nan nan nan nan nan nan nan
nan nan nan nan nan nan nan nan nan nan nan nan nan nan nan nan nan nan nan nan nan nan nan nan nan nan 0 nan nan nan nan nan 2 2 6 1 5 5 7 nan nan nan nan nan nan nan nan nan nan nan nan nan nan nan nan nan nan nan nan nan nan nan nan nan nan nan nan nan nan nan nan nan nan nan nan nan 0 0 0 nan nan nan nan nan nan nan
nan nan nan nan nan nan nan nan nan nan nan nan nan nan nan nan nan nan nan nan nan nan 1 0 0 nan nan nan nan nan nan nan 1 1 6 2 3 3 6 0 0 nan nan nan nan nan nan nan nan nan nan nan nan nan nan nan nan nan nan nan nan nan nan nan nan nan nan nan nan nan nan nan nan nan nan 1 2 2 1 1 1 1 0 nan nan nan
nan nan nan nan nan nan nan nan nan nan nan nan nan nan nan nan nan nan nan nan nan nan nan 1 1 1 3 nan nan nan nan 0 1 1 3 1 1 1 4 3 3 nan nan nan nan nan nan nan nan nan nan nan nan nan nan nan nan nan nan nan nan nan nan nan nan nan nan nan nan nan nan nan nan nan nan 3 1 1 4 4 4 3 2 1 1 0
nan nan nan nan nan nan nan nan nan nan nan nan nan nan nan nan nan nan nan nan nan nan nan nan nan nan 3 4 0 0 nan nan nan nan 1 0 0 0 3 2 2 nan nan nan nan nan nan nan nan nan nan nan nan nan nan nan nan nan nan nan nan nan nan nan nan nan nan nan nan nan nan nan nan nan nan nan nan nan nan nan nan 2 4 2 2 3
nan nan nan nan nan nan nan nan nan nan nan nan nan nan nan nan nan nan nan nan nan nan nan nan nan nan nan nan 2 2 2 nan nan nan 0 nan 0 0 4 0 0 nan nan nan nan nan nan nan nan nan nan nan nan nan nan nan nan nan nan nan nan nan nan nan nan nan nan nan nan nan nan nan nan nan nan nan nan nan nan nan nan nan nan nan nan 3
nan nan nan nan nan nan nan nan nan nan nan nan nan nan nan nan nan nan nan nan nan nan nan nan nan nan nan 0 1 1 nan nan nan nan nan 0 0 0 4 nan nan nan nan nan nan nan nan nan nan nan nan nan nan nan nan nan nan nan nan nan nan nan nan nan nan nan nan nan nan nan nan nan nan nan nan nan nan nan nan nan nan nan nan nan nan nan
nan nan nan nan nan nan nan nan nan nan nan nan nan nan nan nan nan nan nan nan nan nan nan nan nan nan nan nan nan nan nan nan nan nan nan nan nan nan 1 nan nan nan nan nan nan nan nan nan nan nan nan nan nan nan nan nan nan nan nan nan nan nan nan nan nan nan nan nan nan nan nan nan nan nan nan nan nan nan nan nan nan nan nan nan nan nan
1 nan nan nan nan nan nan nan nan nan nan nan nan nan nan nan nan nan nan nan nan nan nan nan nan nan nan nan nan nan nan nan nan nan nan nan nan nan nan nan nan nan nan nan nan nan nan nan nan nan nan nan nan nan nan nan nan nan nan nan nan nan nan nan nan nan nan nan nan nan nan nan nan nan nan nan nan nan nan nan nan nan nan nan nan nan
nan nan nan nan nan nan nan nan nan nan nan nan nan nan nan nan nan nan nan nan nan nan nan nan nan nan nan nan nan nan nan nan nan nan nan nan nan nan nan nan nan nan nan nan nan nan nan nan nan nan nan nan nan nan nan nan nan nan nan nan nan nan nan nan nan nan nan nan nan nan nan nan nan nan nan nan nan nan nan nan nan nan nan nan nan nan
nan nan nan nan nan nan nan nan nan nan nan nan nan nan nan nan nan nan nan nan nan nan nan nan nan nan nan nan nan nan nan nan nan nan nan nan nan nan nan nan nan nan nan nan nan nan nan nan nan nan nan nan nan nan nan nan nan nan nan nan nan nan nan nan nan nan nan nan nan nan nan nan nan nan nan nan nan nan nan nan nan nan nan nan nan nan
nan nan nan nan nan nan nan nan nan nan nan nan nan nan nan nan nan nan nan nan nan nan nan nan nan nan nan nan nan nan nan nan nan nan nan nan nan nan nan nan nan nan nan nan nan nan nan nan nan nan nan nan nan nan nan nan nan nan nan nan nan nan nan nan nan nan nan nan nan nan nan nan nan nan nan nan nan nan nan nan nan nan nan nan nan nan
nan nan nan nan nan nan nan nan nan nan nan nan nan nan nan nan nan nan nan nan nan nan nan nan nan nan nan nan nan nan nan nan nan nan nan nan nan nan nan nan nan nan nan nan nan nan nan nan nan nan nan nan nan nan nan nan nan nan nan nan nan nan nan nan nan nan nan nan nan nan nan nan nan nan nan nan nan nan nan nan nan nan nan nan nan nan
nan nan nan nan nan nan nan nan nan nan nan nan nan nan nan nan nan nan nan nan nan nan nan nan nan nan nan nan nan nan nan nan nan nan nan nan nan nan nan nan nan nan nan nan nan nan nan nan nan nan nan nan nan nan nan nan nan nan nan nan nan nan nan nan nan nan nan nan nan nan nan nan nan nan nan nan nan nan nan nan nan nan nan nan nan nan
nan nan nan nan nan nan nan nan nan nan nan nan nan nan nan nan nan nan nan nan nan nan nan nan nan nan nan nan nan nan nan nan nan nan nan nan nan nan nan nan nan nan nan nan nan nan nan nan nan nan nan nan nan nan nan nan nan nan nan nan nan nan nan nan nan nan nan nan nan nan nan nan nan nan nan nan nan nan nan nan nan nan nan nan nan nan
nan nan nan nan nan nan nan nan nan nan nan nan nan nan nan nan 5 5 nan nan nan nan nan nan nan nan nan nan nan nan nan nan nan nan nan nan nan nan nan nan nan nan nan nan nan nan nan nan nan nan nan nan nan nan nan nan nan nan nan nan nan nan nan nan nan nan nan nan nan nan nan nan nan nan nan nan nan nan nan nan nan nan nan nan nan nan
nan nan nan nan nan nan nan nan nan nan nan nan nan nan nan nan nan nan nan nan nan nan nan nan nan nan nan nan nan nan nan nan nan nan nan nan nan nan nan nan nan nan nan nan nan nan nan nan nan nan 1 nan nan nan nan nan nan nan nan nan nan nan nan nan nan nan nan nan nan nan nan nan nan nan nan nan nan nan nan nan nan nan nan nan nan nan
nan nan nan nan nan nan nan nan nan nan nan nan nan nan nan nan nan nan nan nan nan nan nan nan nan nan nan nan nan nan nan nan nan nan nan nan nan nan nan nan nan nan nan nan nan nan nan nan nan nan nan 4 nan nan nan nan nan nan nan nan nan nan nan nan nan nan nan nan nan nan nan nan nan nan nan nan nan nan nan nan nan nan nan nan nan nan
CIN
-4 -0 nan nan nan nan nan nan nan nan nan nan nan nan nan -8 -8 -8 -3 -2 -2 -6 -6 -5 -5 -4 -1 -0 -0 -0 -0 -0 -0 -0 -0 -0 -0 -0 -0 -0 -0 -0 nan nan nan nan nan nan nan nan nan nan nan nan nan nan nan -183 -169 -196 -196 -182 -193 -222 -222 nan nan nan nan nan -0 -0 -0 -0 -0 -0 -12 -12 -5 -6 -6 -10 -21 -72 -72 -87
-4 nan nan nan nan nan nan nan nan nan nan nan nan nan nan -12 -5 -5 -5 -6 -6 -8 -6 -8 -8 -8 nan -0 -0 -0 -0 -0 -0 -0 -0 -0 -0 -0 -0 -0 -0 -0 nan nan nan nan nan nan nan nan nan nan nan nan nan nan nan -229 -203 -216 -216 -215 -210 -222 -222 -230 nan nan nan nan -1 -0 -0 -0 -0 -0 -1 -1 -1 -8 -8 -18 -25 -33 -33 -82
-0 -0 -0 nan nan nan nan nan nan nan nan nan nan nan nan -7 -2 -2 -4 -7 -7 -9 -9 -8 -8 -8 nan -1 -0 -0 -0 -0 -0 -0 -0 -0 -0 -0 -0 -0 -0 -0 nan nan nan nan nan nan nan nan nan nan nan nan nan nan nan nan nan -295 -295 -288 -297 -290 -290 nan nan nan nan nan nan -0 -0 -0 -0 -1 -1 -1 -1 -23 -23 -37 -36 -35 -35 -37
-0 -0 -0 -12 -12 nan nan nan nan nan nan nan nan nan nan -2 -1 -1 -4 -10 -10 -9 -10 nan nan nan nan -3 -0 -0 -0 -0 -0 -0 -0 -0 -0 -0 -0 -0 -0 -0 -2 nan nan nan nan nan nan nan nan nan nan nan nan nan nan nan nan nan nan nan nan nan nan nan nan nan nan nan nan nan -1 -1 -1 -68 -82 -82 -93 -103 -103 -38 -41 -39 -39 -35
-3 -0 -2 -0 -0 -2 nan nan nan nan nan nan nan nan -3 -1 -4 -4 -7 -10 -10 -9 nan nan nan nan nan nan -0 -0 -0 -0 -0 -0 -0 -0 -0 -0 -0 -0 -0 -0 nan nan nan nan nan nan nan nan nan nan nan nan nan nan nan nan nan nan nan nan nan nan nan nan nan nan nan nan nan nan nan nan nan nan -166 -166 -137 -85 -85 -63 -21 -32 -32 -38
-0 -0 -0 -0 -0 -0 nan nan nan nan nan nan -22 -22 -8 -8 -8 -8 -10 -10 -10 -11 nan nan nan nan nan nan nan nan -0 -0 -0 -0 -0 -0 -0 -0 -0 -0 -0 -0 nan nan nan nan nan nan nan nan nan nan nan nan nan nan nan nan nan nan nan nan nan nan nan nan nan nan nan nan nan nan nan nan nan nan nan nan nan -72 -72 -24 -16 -18 -18 -32
-0 -0 -0 -0 -0 -0 nan nan nan nan nan nan -24 -24 -19 -14 -12 -12 -9 -7 -7 -8 nan nan nan nan nan nan nan nan -0 -0 -0 -0 -0 -0 -0 -0 -0 -0 -0 -0 nan nan nan nan nan nan nan nan nan nan nan nan nan nan nan nan nan nan nan nan nan nan nan nan nan nan nan nan nan nan nan nan nan nan nan nan nan nan nan -29 -26 -0 -0 -18
-0 -0 -0 -0 -0 -0 -2 nan nan nan -7 -2 -4 -4 nan -9 -7 -7 -7 -6 -6 nan nan nan nan nan nan nan nan nan nan nan nan nan nan nan -1 -1 -0 -0 -0 -0 -2 nan nan nan nan nan nan nan nan nan nan nan nan nan nan nan nan nan nan nan nan nan nan nan nan nan nan nan nan nan nan nan nan nan nan nan nan nan nan nan -42 -29 -29 -0
-0 -0 -0 -0 -0 -0 -0 -1 -3 -3 -0 -0 nan nan -3 -1 -0 -0 -0 -0 -0 -2 -2 -1 -1 nan nan nan nan nan nan nan nan nan nan nan nan nan nan nan nan -0 -1 nan nan nan nan nan nan nan nan nan nan nan nan nan nan nan nan nan nan nan nan nan nan nan nan nan nan nan nan nan nan nan nan nan nan nan nan nan nan nan nan nan nan -17
-1 -0 -0 -0 -0 -0 -0 -0 -0 -0 -0 -0 -0 -0 -0 -0 -0 -0 -0 -0 -0 -1 -1 -1 -1 -1 nan nan nan nan nan nan nan nan nan nan nan nan nan nan nan -0 -2 nan nan nan nan nan nan nan nan nan nan nan nan nan nan nan nan nan nan nan nan nan nan nan nan nan nan nan nan nan nan nan nan nan nan nan nan nan nan nan nan nan nan nan
-0 -1 -0 -0 -0 -0 -0 -0 -1 -1 -2 -1 -0 -0 -0 -0 -0 -0 -0 -0 -0 -0 -0 -1 -1 -2 nan nan nan nan nan nan nan nan nan nan nan nan nan nan nan -1 -97 nan nan nan nan nan nan nan nan nan nan nan nan nan nan nan nan nan nan nan nan nan nan nan nan nan nan nan nan nan nan nan nan nan nan nan nan nan nan nan nan nan nan nan
-0 -0 -0 -0 -0 -0 -0 -1 -2 -2 -3 -0 -0 -0 -0 -1 -0 -0 -0 -0 -0 -0 -0 -0 -0 -3 nan nan nan nan nan nan nan nan nan nan nan nan nan -1 -1 -1 -76 -105 -105 nan nan nan nan nan nan nan nan nan nan nan nan nan nan nan nan nan nan nan nan nan nan nan nan nan nan nan nan nan nan nan nan nan nan nan nan nan nan nan nan nan
-0 -0 -0 -0 -0 -0 -0 -0 -0 -0 -0 -0 -0 -0 -0 -0 -0 -0 -0 -0 -0 -0 -0 -0 -0 -1 nan nan nan nan nan nan nan nan nan nan nan nan nan nan nan -0 -0 -60 -60 -94 nan nan nan nan nan nan nan nan nan nan nan nan nan nan nan nan nan nan nan nan nan nan nan nan nan nan nan nan nan nan nan nan nan nan nan nan nan nan nan nan
-0 -0 -0 -0 -0 -0 -0 -0 -0 -0 -0 -0 -0 -0 -0 -0 -0 -0 -0 -0 -0 -0 -0 -0 -0 -0 nan nan nan nan nan nan nan nan nan nan nan nan nan nan nan -0 -0 -52 -52 -78 nan nan nan -3 nan nan nan nan nan nan nan nan nan nan nan nan nan nan nan nan nan nan nan nan nan nan nan nan nan nan nan nan nan nan nan nan nan nan nan nan
-0 -0 -0 -0 -0 -0 -0 -0 -0 -0 -0 -0 -0 -0 -0 -0 -0 -0 -0 -0 -0 -0 -0 -1 -1 -2 -14 nan nan nan nan nan nan nan nan nan nan nan nan nan nan -0 -1 -69 -69 -79 nan nan nan -2 -4 -4 nan nan nan nan nan nan nan nan nan nan nan nan nan nan nan nan nan nan nan nan nan nan nan nan nan nan nan nan nan nan nan nan nan nan
-0 -0 -0 -0 -0 -0 -0 -0 -0 -0 -0 -0 -0 -0 -0 -0 -0 -0 -0 -0 -0 -0 -0 -0 -0 -1 -9 nan nan nan nan nan nan nan nan nan nan nan nan nan nan -0 -1 -71 -71 -79 -102 nan nan -3 -3 nan nan nan nan nan nan nan nan nan nan nan nan nan nan nan nan nan nan nan nan nan nan nan nan nan nan nan nan nan nan nan nan nan nan nan
-0 -0 -0 -0 -0 -0 -0 -0 -0 -0 -0 -0 -0 -0 -0 -0 -0 -0 -0 -0 -0 -0 -0 -0 -0 -0 -1 -15 nan nan nan nan nan nan nan nan nan nan nan nan nan -0 -1 -55 -55 -77 -91 nan nan -3 -4 nan nan nan nan nan nan nan nan nan nan nan nan nan nan nan nan nan nan nan nan nan nan nan nan nan nan nan nan nan nan nan nan nan nan nan
-0 -0 -0 -0 -0 -0 -0 -0 -0 -0 -1 -0 -0 -0 -0 -1 -0 -0 -0 -0 -0 -0 -0 -0 -0 -0 -0 -1 nan nan -0 -0 -1 -1 -2 nan nan nan nan nan nan -0 -1 -4 -4 -59 -3 -3 -3 nan nan nan nan nan nan nan nan nan nan nan nan nan nan nan nan nan nan nan nan nan nan nan nan nan nan nan nan nan nan nan nan nan nan nan nan nan
-0 -0 -0 -0 -0 -0 -0 -0 -0 -0 -0 -0 -0 -0 -0 -0 -0 -0 -0 -0 -0 -0 -0 -0 -0 -0 -0 -0 -0 -0 -0 -0 -0 -0 -4 nan nan nan nan nan nan -0 -0 -3 -3 -58 -4 -4 -4 nan nan nan nan nan nan nan nan nan nan nan nan nan nan nan nan nan nan nan nan nan nan nan nan nan nan nan nan nan nan nan nan nan nan nan nan nan
-0 -0 -0 -0 -0 -0 -0 -0 -0 -0 -0 -0 -0 -0 -0 -0 -0 -0 -0 -0 -0 -0 -0 -0 -0 -0 -0 -0 -0 -0 -0 -0 -0 -0 -2 nan nan nan nan nan nan -0 -0 -7 -7 -8 -3 -4 -4 nan nan nan nan nan nan nan nan nan nan nan nan nan nan nan nan nan nan nan nan nan nan nan nan nan nan nan nan nan nan nan nan nan nan nan nan nan
-0 -0 -1 -0 -0 -0 -0 -0 -0 -0 -0 -0 -0 -0 -0 -0 -0 -0 -0 -0 -0 -0 -0 -0 -0 -0 -0 -0 -0 -0 -0 -0 -0 -0 -1 nan nan nan nan nan nan -0 -1 nan nan -14 -3 -3 -3 nan nan nan nan nan nan nan nan nan nan nan nan nan nan nan nan nan nan nan nan nan nan nan nan nan nan nan nan nan nan nan nan nan nan nan nan nan
-0 -0 -5 -5 -5 -0 -0 -0 -0 -0 -0 -0 -0 -0 -0 -0 -0 -0 -0 -0 -0 -0 -0 -0 -0 -0 -0 -0 -0 -0 -0 -0 -0 -0 -0 nan nan nan nan nan nan -1 -1 nan nan -20 -5 -3 -3 -6 nan nan nan nan nan nan nan nan nan nan nan nan nan nan nan nan nan nan nan nan nan nan nan nan nan nan nan nan nan nan nan nan nan nan nan nan
-0 -0 -5 -6 -6 -0 -0 -0 -1 -1 -0 -0 -0 -0 -0 -0 -0 -0 -0 -0 -0 -0 -0 -0 -0 -1 -0 -0 -0 -0 -0 -0 -0 -0 -0 nan nan nan nan nan nan -1 -3 nan nan -19 -4 -4 -4 -5 nan nan nan nan nan nan nan nan nan nan nan nan nan nan nan nan nan nan nan nan nan nan nan nan nan nan nan nan nan nan nan nan nan nan nan nan
-1 -2 -2 -2 -2 -2 -1 -0 -1 -1 -2 -0 -0 -0 -0 -0 -0 -0 -0 -0 -0 -0 -0 -0 -0 -1 -1 -0 -0 -0 -0 -0 -0 -0 -0 nan nan nan nan nan nan -2 nan nan nan -21 -6 -7 -7 -7 nan nan nan nan nan nan nan nan nan nan nan nan nan nan nan nan nan nan nan nan nan nan nan nan nan nan nan nan nan nan nan nan nan nan nan nan
-3 -2 -2 -2 -2 -1 -1 -1 -0 -0 -1 -1 -0 -0 -0 -0 -0 -0 -0 -0 -0 -0 -0 -0 -0 -0 -0 -0 -0 -0 nan -0 -0 -0 nan nan nan nan nan nan nan -0 nan nan nan nan -10 -12 -12 -15 -9 nan nan nan nan nan nan nan nan nan nan nan nan nan nan nan nan nan nan nan nan nan nan nan nan nan nan nan nan nan nan nan nan nan nan nan
-0 -0 -0 -0 -0 -0 -0 -0 -0 -0 -0 -0 -0 -0 -0 nan nan nan nan -0 -0 -0 -0 -0 -0 -0 -0 -0 -1 -1 nan nan nan nan nan nan nan nan nan nan nan -1 nan nan nan nan -8 -10 -10 -18 -10 nan nan nan nan nan nan nan nan nan nan nan nan nan nan nan nan nan nan nan nan nan nan nan nan nan nan nan nan nan nan nan nan nan nan nan
-0 -0 -0 -0 -0 -0 -0 -0 -0 -0 -0 -0 -0 -0 -0 nan nan nan nan nan nan -0 -0 -0 -0 -0 -0 -0 -1 -1 nan nan nan nan nan nan nan nan nan nan nan nan nan nan nan nan -5 -4 -4 -11 -18 nan nan nan nan nan nan nan nan nan nan nan nan nan nan nan nan nan nan nan nan nan nan nan nan nan nan nan nan nan nan nan nan nan nan nan
-0 -0 -0 -0 -0 -0 -0 -0 -0 -0 -0 -0 -0 -0 -0 nan -0 -0 -0 -0 -0 -0 -0 -0 -0 -0 -0 -0 -0 -0 -1 -0 -0 -0 nan nan nan nan nan nan nan nan nan nan nan nan -20 -12 -12 -14 -14 nan nan nan nan nan nan nan nan nan nan nan nan nan nan nan nan nan nan nan nan nan nan nan nan nan nan nan nan nan nan nan nan nan nan nan
-0 -0 -0 -0 -0 -0 -0 -0 -0 -0 -0 -0 -0 -0 -0 nan -0 -0 -0 -0 -0 -0 -0 -0 -0 -0 -0 -0 -0 -0 -1 nan -0 -0 -0 nan nan nan nan nan nan nan nan nan nan nan nan nan nan nan nan nan nan nan nan nan nan nan nan nan nan nan nan nan nan nan nan nan nan nan nan nan nan nan nan nan nan nan nan nan nan nan nan nan nan nan
-0 -0 -0 -0 -0 -0 -0 -0 -0 -0 -0 -0 -0 -0 -0 -0 -0 -0 -0 -0 -0 -0 -0 -0 -0 -0 -0 -0 -0 -0 nan -0 -0 -0 -0 nan nan nan nan nan nan nan nan nan nan nan nan nan nan nan nan nan nan nan nan nan nan nan nan nan nan nan nan nan nan nan nan nan nan nan nan nan nan nan nan nan nan nan nan nan nan nan nan nan nan nan
nan nan nan nan nan nan nan nan -0 -0 -0 -0 -0 -0 -0 -0 -0 -0 -0 -0 -0 -0 -0 -0 -0 -0 -0 -0 -0 -0 nan -0 -0 -0 -0 -0 nan nan nan nan nan nan nan nan nan nan nan nan nan nan nan nan nan nan nan nan nan nan nan nan nan nan nan nan nan nan nan nan nan nan nan nan nan nan nan nan nan nan nan nan nan nan nan nan nan nan
nan nan nan nan nan nan nan nan nan nan nan nan nan nan -0 -0 -0 -0 nan -0 -0 -0 -0 -0 -0 -0 -0 -0 -0 -0 -0 -0 -0 -0 -0 -0 -0 -0 nan nan nan nan nan nan nan nan nan nan nan nan nan nan nan nan nan nan nan nan nan nan nan nan nan nan nan nan nan nan nan nan nan nan nan nan nan nan nan nan nan nan nan nan nan nan nan nan
nan nan nan nan nan nan nan nan nan nan nan nan nan nan nan nan -0 -0 -0 nan nan -0 -0 -0 -0 -0 -0 -0 -0 -0 -1 -1 -0 -0 -0 -0 -0 -0 nan nan nan nan nan nan nan nan nan nan nan nan nan nan nan nan nan nan nan nan nan nan nan nan nan nan nan nan nan nan nan nan nan nan nan nan nan nan nan nan nan nan nan nan nan nan nan nan
nan nan nan nan nan nan nan nan nan nan nan nan nan nan nan nan nan nan nan nan nan nan -0 -0 -0 -0 -0 -0 nan nan -1 -1 -0 -0 -0 -0 -0 -0 -0 nan nan nan nan nan nan nan nan nan nan nan nan nan nan nan nan nan nan nan nan nan nan nan nan nan nan nan nan nan nan nan nan nan nan nan nan nan nan nan nan nan nan nan nan nan nan nan
nan nan nan nan nan nan nan nan nan nan nan nan nan nan nan nan nan nan nan nan nan nan nan nan nan nan -0 nan nan nan nan nan -0 -0 -0 -0 -0 -0 -0 nan nan nan nan nan nan nan nan nan nan nan nan nan nan nan nan nan nan nan nan nan nan nan nan nan nan nan nan nan nan nan nan nan nan nan nan nan -1 -1 -1 nan nan nan nan nan nan nan
nan nan nan nan nan nan nan nan nan nan nan nan nan nan nan nan nan nan nan nan nan nan -0 -1 -1 nan nan nan nan nan nan nan -0 -0 -0 -0 -0 -0 -0 -0 -0 nan nan nan nan nan nan nan nan nan nan nan nan nan nan nan nan nan nan nan nan nan nan nan nan nan nan nan nan nan nan nan nan nan nan -1 -0 -0 -0 -0 -0 -0 -2 nan nan nan
nan nan nan nan nan nan nan nan nan nan nan nan nan nan nan nan nan nan nan nan nan nan nan -0 -0 -1 -0 nan nan nan nan -1 -0 -0 -0 -0 -0 -0 -0 -0 -0 nan nan nan nan nan nan nan nan nan nan nan nan nan nan nan nan nan nan nan nan nan nan nan nan nan nan nan nan nan nan nan nan nan nan -0 -0 -0 -0 -0 -0 -0 -0 -1 -1 -3
nan nan nan nan nan nan nan nan nan nan nan nan nan nan nan nan nan nan nan nan nan nan nan nan nan nan -0 -0 -1 -1 nan nan nan nan -0 -0 -0 -0 -0 -0 -0 nan nan nan nan nan nan nan nan nan nan nan nan nan nan nan nan nan nan nan nan nan nan nan nan nan nan nan nan nan nan nan nan nan nan nan nan nan nan nan nan -0 -0 -1 -1 -0
nan nan nan nan nan nan nan nan nan nan nan nan nan nan nan nan nan nan nan nan nan nan nan nan nan nan nan nan -0 -0 -0 nan nan nan -0 nan -0 -0 -0 -0 -0 nan nan nan nan nan nan nan nan nan nan nan nan nan nan nan nan nan nan nan nan nan nan nan nan nan nan nan nan nan nan nan nan nan nan nan nan nan nan nan nan nan nan nan nan -0
nan nan nan nan nan nan nan nan nan nan nan nan nan nan nan nan nan nan nan nan nan nan nan nan nan nan nan -0 -0 -0 nan nan nan nan nan -0 -0 -0 -0 nan nan nan nan nan nan nan nan nan nan nan nan nan nan nan nan nan nan nan nan nan nan nan nan nan nan nan nan nan nan nan nan nan nan nan nan nan nan nan nan nan nan nan nan nan nan nan
nan nan nan nan nan nan nan nan nan nan nan nan nan nan nan nan nan nan nan nan nan nan nan nan nan nan nan nan nan nan nan nan nan nan nan nan nan nan -0 nan nan nan nan nan nan nan nan nan nan nan nan nan nan nan nan nan nan nan nan nan nan nan nan nan nan nan nan nan nan nan nan nan nan nan nan nan nan nan nan nan nan nan nan nan nan nan
-0 nan nan nan nan nan nan nan nan nan nan nan nan nan nan nan nan nan nan nan nan nan nan nan nan nan nan nan nan nan nan nan nan nan nan nan nan nan nan nan nan nan nan nan nan nan nan nan nan nan nan nan nan nan nan nan nan nan nan nan nan nan nan nan nan nan nan nan nan nan nan nan nan nan nan nan nan nan nan nan nan nan nan nan nan nan
nan nan nan nan nan nan nan nan nan nan nan nan nan nan nan nan nan nan nan nan nan nan nan nan nan nan nan nan nan nan nan nan nan nan nan nan nan nan nan nan nan nan nan nan nan nan nan nan nan nan nan nan nan nan nan nan nan nan nan nan nan nan nan nan nan nan nan nan nan nan nan nan nan nan nan nan nan nan nan nan nan nan nan nan nan nan
nan nan nan nan nan nan nan nan nan nan nan nan nan nan nan nan nan nan nan nan nan nan nan nan nan nan nan nan nan nan nan nan nan nan nan nan nan nan nan nan nan nan nan nan nan nan nan nan nan nan nan nan nan nan nan nan nan nan nan nan nan nan nan nan nan nan nan nan nan nan nan nan nan nan nan nan nan nan nan nan nan nan nan nan nan nan
nan nan nan nan nan nan nan nan nan nan nan nan nan nan nan nan nan nan nan nan nan nan nan nan nan nan nan nan nan nan nan nan nan nan nan nan nan nan nan nan nan nan nan nan nan nan nan nan nan nan nan nan nan nan nan nan nan nan nan nan nan nan nan nan nan nan nan nan nan nan nan nan nan nan nan nan nan nan nan nan nan nan nan nan nan nan
nan nan nan nan nan nan nan nan nan nan nan nan nan nan nan nan nan nan nan nan nan nan nan nan nan nan nan nan nan nan nan nan nan nan nan nan nan nan nan nan nan nan nan nan nan nan nan nan nan nan nan nan nan nan nan nan nan nan nan nan nan nan nan nan nan nan nan nan nan nan nan nan nan nan nan nan nan nan nan nan nan nan nan nan nan nan
nan nan nan nan nan nan nan nan nan nan nan nan nan nan nan nan nan nan nan nan nan nan nan nan nan nan nan nan nan nan nan nan nan nan nan nan nan nan nan nan nan nan nan nan nan nan nan nan nan nan nan nan nan nan nan nan nan nan nan nan nan nan nan nan nan nan nan nan nan nan nan nan nan nan nan nan nan nan nan nan nan nan nan nan nan nan
nan nan nan nan nan nan nan nan nan nan nan nan nan nan nan nan nan nan nan nan nan nan nan nan nan nan nan nan nan nan nan nan nan nan nan nan nan nan nan nan nan nan nan nan nan nan nan nan nan nan nan nan nan nan nan nan nan nan nan nan nan nan nan nan nan nan nan nan nan nan nan nan nan nan nan nan nan nan nan nan nan nan nan nan nan nan
nan nan nan nan nan nan nan nan nan nan nan nan nan nan nan nan -0 -0 nan nan nan nan nan nan nan nan nan nan nan nan nan nan nan nan nan nan nan nan nan nan nan nan nan nan nan nan nan nan nan nan nan nan nan nan nan nan nan nan nan nan nan nan nan nan nan nan nan nan nan nan nan nan nan nan nan nan nan nan nan nan nan nan nan nan nan nan
nan nan nan nan nan nan nan nan nan nan nan nan nan nan nan nan nan nan nan nan nan nan nan nan nan nan nan nan nan nan nan nan nan nan nan nan nan nan nan nan nan nan nan nan nan nan nan nan nan nan -0 nan nan nan nan nan nan nan nan nan nan nan nan nan nan nan nan nan nan nan nan nan nan nan nan nan nan nan nan nan nan nan nan nan nan nan
nan nan nan nan nan nan nan nan nan nan nan nan nan nan nan nan nan nan nan nan nan nan nan nan nan nan nan nan nan nan nan nan nan nan nan nan nan nan nan nan nan nan nan nan nan nan nan nan nan nan nan -0 nan nan nan nan nan nan nan nan nan nan nan nan nan nan nan nan nan nan nan nan nan nan nan nan nan nan nan nan nan nan nan nan nan nan
Wind_Speed
7 8 8 8 7 7 7 8 8 8 9 9 8 8 7 7 6 5 5 4 4 4 4 4 4 3 3 5 7 9 10 12 13 15 16 16 16 17 16 14 11 8 8 8 10 12 14 14 12 10 8 8 10 12 14 15 16 17 18 19 20 21 21 21 21 21 20 20 20 20 20 20 19 19 18 18 19 20 21 22 22 22 22 21 21 21
7 8 7 7 7 7 8 9 8 8 8 9 9 8 8 8 6 5 4 4 4 4 4 4 3 3 3 3 5 8 9 11 13 14 15 15 16 16 16 15 11 9 8 8 10 11 13 13 12 10 9 8 9 10 12 14 16 17 19 19 20 20 21 21 21 21 20 19 19 19 19 19 18 18 18 18 19 20 20 21 21 22 22 22 22 21
8 7 7 7 7 7 8 8 8 7 7 8 9 9 9 9 7 5 3 3 3 3 3 3 3 3 3 3 4 7 8 10 12 13 14 15 16 16 16 15 11 9 8 8 9 10 11 11 11 9 9 9 9 10 12 14 15 17 18 19 19 20 20 20 20 20 20 19 19 18 18 18 18 17 17 17 18 19 19 20 20 21 22 22 23 22
7 8 8 7 6 7 8 8 7 7 7 8 9 9 10 8 6 5 4 4 3 3 3 3 3 3 3 3 3 5 8 9 10 12 13 14 16 16 17 15 11 8 8 8 8 9 9 9 9 8 8 8 9 10 12 13 15 16 17 18 19 19 19 19 19 19 19 19 18 18 18 18 17 17 16 16 16 17 18 19 19 20 21 22 23 23
7 8 8 7 7 7 7 7 7 6 6 6 7 8 8 6 5 5 5 4 4 3 3 3 3 3 3 3 4 5 7 8 9 10 12 13 15 16 17 15 11 8 7 7 8 8 8 8 7 7 7 8 9 11 12 13 14 15 17 17 18 19 19 19 19 19 19 19 19 19 19 19 18 17 15 14 14 15 16 18 19 21 22 22 22 23
7 7 7 7 7 7 6 6 6 6 5 5 6 6 6 5 5 5 6 5 4 4 3 3 3 3 3 3 4 5 6 7 8 9 11 12 14 15 16 15 11 7 6 7 7 7 8 7 6 6 7 8 10 11 12 13 14 14 15 17 18 18 19 19 19 19 19 19 19 20 20 20 20 18 16 15 14 14 15 17 19 21 23 23 23 22
7 7 7 7 6 6 6 5 5 5 5 5 5 5 5 5 5 6 6 6 5 4 3 3 3 3 3 4 5 5 5 5 7 8 9 11 12 14 16 15 12 7 5 6 7 7 7 7 6 6 7 8 10 11 13 14 14 13 14 15 16 17 18 19 19 19 19 19 19 19 19 20 20 19 18 16 14 13 14 15 18 21 23 24 24 23
7 7 7 6 6 5 5 4 4 4 4 4 4 4 5 4 5 5 5 5 4 4 3 3 2 2 3 3 4 4 3 3 3 5 7 8 10 12 14 15 12 8 5 6 7 8 8 7 6 6 6 8 9 11 13 14 15 14 13 13 14 15 17 18 18 18 18 18 18 18 18 18 18 18 18 16 14 13 13 15 17 20 22 24 24 23
7 7 6 6 6 6 6 4 3 3 4 4 4 4 4 4 4 4 4 4 3 3 2 2 2 2 2 2 3 3 2 1 1 2 4 5 7 9 12 13 12 8 6 7 8 8 8 7 6 6 5 6 8 9 12 14 15 15 14 13 13 14 15 16 16 17 16 16 16 17 17 17 17 16 16 15 13 13 13 15 17 19 22 23 24 23
7 7 6 6 5 5 6 5 5 5 7 5 4 3 3 4 5 6 6 5 4 3 2 2 2 2 2 1 2 2 2 1 1 2 4 6 7 9 10 12 10 6 6 7 8 8 8 7 6 5 5 5 6 8 10 12 14 16 16 15 14 14 14 15 15 16 16 16 16 16 16 16 16 16 15 14 13 12 13 14 16 19 21 22 23 22
6 6 6 5 4 4 4 4 5 5 6 6 5 4 5 6 6 6 7 7 6 5 4 3 2 2 2 1 1 1 1 1 1 2 4 6 8 9 11 11 9 6 5 6 7 8 7 7 6 6 5 5 6 6 8 10 12 14 16 16 15 15 15 15 15 15 15 15 15 15 16 16 16 15 14 13 12 12 12 14 16 17 19 20 21 20
6 5 4 4 4 4 4 4 4 4 5 5 4 4 5 6 5 5 6 6 7 7 6 5 3 2 2 1 1 1 0 0 1 1 2 4 6 7 8 8 7 5 4 5 6 7 7 7 7 6 6 6 6 6 7 8 11 13 15 16 16 16 15 15 15 15 15 15 15 15 15 15 15 14 14 12 11 11 12 13 15 16 17 18 19 19
5 5 4 4 4 4 4 5 5 4 5 5 5 5 6 6 5 5 5 6 6 7 7 6 5 3 2 2 1 1 0 0 0 1 2 2 3 4 4 5 5 4 2 3 4 5 6 7 7 7 7 7 6 7 7 8 9 12 14 15 16 16 16 16 16 16 16 15 15 15 15 15 14 14 13 12 11 11 12 13 14 15 16 17 17 18
5 5 5 5 4 4 4 5 5 5 5 5 5 5 5 5 5 6 5 6 6 6 7 7 6 4 2 2 1 1 0 0 0 1 2 2 2 2 2 3 4 4 2 1 2 3 5 5 5 6 7 7 7 7 6 7 9 11 13 14 16 16 17 17 16 16 16 16 16 15 15 15 14 14 13 12 11 12 12 13 13 14 15 16 17 18
6 6 6 5 5 4 4 5 5 5 5 5 5 5 5 5 5 6 6 6 7 7 7 6 5 4 2 1 1 0 0 0 0 1 2 1 1 1 1 2 3 4 3 1 1 2 4 4 4 4 5 6 7 6 6 6 9 11 12 14 16 16 17 17 17 17 17 16 16 16 15 15 15 14 14 12 12 12 13 13 13 13 14 16 17 18
5 5 6 6 5 5 4 4 5 5 5 5 5 5 5 5 5 5 6 6 6 6 6 5 4 3 2 1 1 1 1 1 1 1 1 1 1 1 2 1 2 3 2 1 1 2 2 3 4 4 5 6 7 7 6 6 8 10 12 14 15 17 17 18 18 18 17 17 17 16 15 15 15 15 14 13 13 13 13 13 13 14 14 16 17 18
4 5 5 6 6 5 5 4 4 5 5 5 5 5 5 5 5 5 5 5 5 5 5 5 4 3 2 2 2 2 2 2 1 1 1 1 1 1 2 0 1 2 2 1 1 1 2 3 3 4 4 5 7 7 7 7 8 10 12 14 15 17 17 18 18 18 18 17 17 16 16 15 15 15 15 14 13 13 13 14 14 14 15 16 18 19
4 4 5 5 6 6 6 5 4 4 5 5 5 5 5 4 5 5 5 5 5 5 5 4 4 3 2 2 2 4 5 4 3 2 2 2 2 1 1 1 1 2 2 2 2 2 2 3 3 4 4 6 7 8 8 8 9 10 12 14 15 17 17 18 18 18 18 18 17 16 16 15 15 15 15 15 14 14 14 14 14 15 15 17 18 19
4 4 4 5 5 6 6 5 5 5 5 5 6 6 5 5 5 5 5 5 5 5 5 5 4 3 3 3 3 5 8 8 6 3 2 2 2 1 1 1 1 2 2 2 2 3 3 3 3 4 5 6 8 8 9 9 10 11 12 14 15 16 17 18 18 18 18 18 17 16 16 16 15 15 15 15 15 15 14 15 15 15 16 17 18 19
4 4 4 5 5 6 6 5 5 6 6 6 6 6 5 5 5 5 5 5 5 4 4 5 5 4 4 5 5 6 7 7 6 4 1 1 1 1 1 0 1 2 2 1 1 2 3 3 3 4 6 7 8 9 9 9 10 11 12 14 15 16 17 17 18 18 18 18 17 16 16 16 16 16 16 16 16 15 15 15 15 16 17 17 18 19
4 4 4 4 4 5 4 4 5 6 7 7 6 6 5 5 5 5 5 5 5 5 5 4 5 5 4 5 6 6 6 6 5 4 1 1 1 1 0 0 1 2 2 1 1 1 2 3 3 3 5 7 8 9 9 9 10 11 12 14 15 16 17 17 17 17 18 18 17 17 16 16 16 16 16 16 16 15 15 15 15 16 17 18 18 19
4 4 4 5 5 5 5 5 6 7 8 7 6 5 4 5 5 6 6 6 6 5 5 5 5 6 6 7 7 6 5 4 4 3 2 1 1 1 1 0 1 1 2 1 1 2 3 3 3 4 5 7 8 9 10 10 10 11 12 13 15 16 17 16 16 16 17 17 17 17 17 16 16 16 16 16 16 16 15 15 15 16 17 17 18 18
5 5 5 5 5 5 5 5 5 5 6 6 5 4 3 4 4 5 5 5 5 6 6 6 6 7 7 7 7 6 5 5 4 4 2 1 1 1 1 0 0 1 2 1 2 2 3 3 4 4 5 8 9 10 10 10 10 10 11 13 14 16 17 17 17 17 16 17 17 17 17 16 16 16 16 16 16 16 16 15 15 16 16 17 17 18
5 5 5 5 5 5 5 4 4 4 4 5 4 3 3 3 3 4 4 5 5 5 5 6 6 6 6 6 6 6 5 5 5 4 2 1 1 1 0 0 0 1 2 2 2 2 3 3 3 4 4 8 10 11 11 10 10 10 11 12 13 15 17 18 18 18 17 16 16 16 16 16 16 16 16 16 16 16 16 15 15 15 16 17 18 20
5 5 5 5 6 7 7 6 6 6 6 5 4 3 3 3 3 4 4 4 4 5 5 6 6 6 5 4 4 3 3 3 4 3 1 1 0 1 1 0 0 1 2 2 2 2 3 3 3 3 4 6 8 10 11 11 10 10 10 11 12 14 16 18 19 19 18 17 16 16 15 15 15 15 15 15 15 16 16 16 16 16 18 19 22 25
9 9 9 10 12 13 13 12 12 11 11 8 6 4 4 3 3 3 3 3 4 5 5 5 5 5 4 3 2 2 1 1 1 1 1 1 0 1 1 1 1 1 2 2 2 2 3 3 3 3 3 4 6 9 11 11 11 10 10 11 12 13 15 17 18 19 19 18 17 16 15 15 15 16 16 16 17 18 19 20 20 21 22 24 25 27
15 15 15 15 16 16 15 15 14 14 15 13 11 8 6 4 3 3 3 4 4 5 5 5 5 5 5 4 3 2 2 2 2 2 1 0 1 1 1 1 1 1 2 2 1 2 3 3 3 3 3 3 4 6 10 11 11 11 10 11 11 12 14 16 17 19 19 19 18 17 17 17 17 18 19 20 22 24 25 27 27 26 26 24 23 24
16 15 15 16 16 15 15 15 14 14 14 15 14 12 8 5 4 4 4 4 4 4 4 5 5 5 4 4 4 4 3 2 2 3 3 1 1 2 1 1 1 1 2 1 1 0 0 1 1 2 2 3 3 4 7 10 11 11 11 11 12 12 14 15 17 18 19 19 19 20 20 21 22 23 24 26 28 30 31 31 31 29 25 21 17 16
14 14 14 15 15 15 14 13 13 14 14 15 14 12 8 5 4 3 3 4 4 4 4 4 4 4 4 5 5 5 3 1 2 4 4 2 2 2 1 1 1 1 2 1 0 2 2 2 2 1 1 2 3 3 4 7 8 10 10 12 12 13 14 16 17 19 20 21 22 23 24 26 27 28 29 31 32 33 34 33 30 26 20 17 15 14
11 11 11 12 12 12 11 10 11 12 13 14 13 11 8 5 3 3 3 3 4 4 4 4 4 4 4 5 5 3 1 2 3 4 5 3 2 1 1 1 2 2 2 1 1 1 1 2 2 2 1 1 2 3 3 5 5 6 7 10 11 12 15 17 19 20 22 24 26 27 28 30 31 32 33 34 34 34 34 32 28 22 16 14 14 13
9 9 8 8 8 8 8 8 8 8 10 11 10 9 7 5 4 3 3 3 3 3 3 4 4 4 4 4 3 2 1 2 4 5 6 4 2 1 1 1 2 2 2 2 1 1 1 1 2 2 2 1 2 2 3 4 5 5 6 7 8 10 15 18 20 22 24 27 28 30 31 32 33 34 34 34 34 34 34 31 26 21 16 15 14 13
8 7 7 7 6 6 6 6 6 6 6 7 7 6 6 5 5 4 3 3 3 3 3 4 4 4 4 3 3 3 2 2 4 6 6 4 3 2 1 1 1 1 2 1 1 2 2 1 0 1 2 2 2 2 2 3 4 5 6 6 6 8 15 17 19 21 23 27 29 31 32 33 34 34 34 33 33 33 33 31 27 22 17 16 15 14
7 7 6 6 6 6 5 5 5 5 5 5 5 5 5 5 5 5 4 4 3 3 3 4 4 4 5 5 5 5 4 4 4 6 6 4 3 2 2 1 0 0 1 1 1 1 2 2 1 1 2 2 2 2 2 3 4 5 6 6 7 8 13 15 16 18 19 22 25 27 30 31 32 32 32 31 31 32 32 31 28 24 20 17 16 16
7 7 7 6 6 6 6 5 6 6 5 5 5 6 5 5 5 5 5 4 4 3 3 4 4 4 5 5 5 6 6 4 4 5 5 4 3 3 3 2 1 0 0 0 1 1 2 3 3 3 2 2 3 3 3 3 4 5 6 7 8 8 10 12 13 14 15 16 17 19 21 23 25 27 27 28 28 29 29 29 28 26 23 20 18 17
6 7 7 7 6 6 6 6 6 6 6 6 6 6 6 5 5 5 5 5 4 4 4 4 4 5 5 5 6 6 6 5 4 5 5 3 3 3 4 2 1 1 0 1 1 2 3 3 4 4 4 3 3 3 3 3 4 5 7 8 8 8 9 10 12 13 14 14 13 13 13 14 15 17 19 22 24 26 27 28 27 26 25 22 20 18
6 7 7 7 7 7 7 7 7 7 7 6 6 6 6 6 5 5 5 5 5 5 5 5 5 5 6 6 7 7 8 6 6 6 6 4 3 3 3 2 2 1 1 1 2 3 4 4 4 5 5 4 3 3 3 3 5 6 7 8 8 8 9 10 11 12 13 13 12 11 10 10 11 12 14 21 24 26 27 27 27 26 25 23 21 19
6 7 7 7 7 7 8 7 7 7 7 7 7 7 7 6 6 6 6 5 5 5 6 6 6 7 8 8 8 8 8 8 8 8 7 5 3 3 4 3 2 1 1 1 2 3 5 5 5 5 5 4 4 3 2 3 5 7 7 7 8 8 8 9 10 11 12 12 12 11 10 11 11 13 15 22 25 26 26 27 26 25 25 24 23 21
7 7 7 7 7 7 7 7 7 7 7 7 7 7 7 7 7 7 6 6 6 6 6 6 6 7 10 11 11 11 11 11 11 11 10 7 5 4 5 4 2 2 1 1 2 3 5 6 6 5 4 4 4 4 4 5 6 7 7 7 8 8 8 8 9 10 11 12 12 12 12 12 12 13 14 16 16 17 18 18 19 21 24 24 24 24
7 7 7 8 8 7 7 7 7 7 7 7 7 7 7 7 7 7 6 6 6 6 6 6 6 7 10 11 13 13 13 13 13 12 11 8 6 5 6 5 3 1 2 1 1 2 5 7 7 7 6 5 5 4 4 5 7 8 8 8 8 8 7 7 8 9 10 12 13 13 12 11 11 11 11 11 12 13 14 13 14 15 17 17 20 22
7 7 7 8 8 7 7 8 8 7 7 7 8 8 7 7 7 6 6 6 5 6 6 7 7 7 8 9 9 10 10 9 9 9 8 6 6 6 6 5 2 1 3 2 2 1 2 5 7 8 8 7 6 5 5 5 7 9 11 9 7 6 6 6 7 8 9 11 12 12 11 10 10 11 10 11 11 12 12 11 11 11 12 13 15 17
8 7 7 8 8 8 8 8 7 7 7 7 7 6 6 6 6 6 6 6 6 6 6 7 6 6 6 6 5 5 5 5 5 4 2 2 4 5 6 5 2 3 4 3 3 2 1 4 7 9 9 8 8 7 7 6 8 10 12 10 8 7 6 7 7 7 8 9 10 11 12 11 11 11 11 11 10 10 10 11 11 10 9 9 11 14
9 8 8 7 7 7 7 7 8 8 7 6 6 6 6 6 6 6 6 7 7 7 7 7 7 6 6 4 4 3 4 5 6 6 5 4 3 3 3 2 2 4 5 4 3 3 2 4 7 9 9 9 9 8 6 6 7 8 9 10 11 11 9 8 6 7 9 9 10 11 13 12 11 11 12 11 11 10 10 11 11 11 8 6 7 9
8 8 7 7 7 7 8 8 8 7 7 6 6 6 6 6 6 6 6 6 7 7 7 7 6 6 5 4 4 4 6 7 8 9 8 6 4 2 2 3 5 5 6 5 3 3 3 4 5 6 8 10 10 9 9 7 7 7 8 10 12 11 7 5 5 6 8 9 10 10 11 11 11 10 11 11 11 10 10 11 11 11 10 8 7 7
8 7 7 7 7 7 7 7 7 7 6 6 6 6 6 6 7 7 6 6 6 7 7 6 6 5 4 4 4 5 5 7 8 9 8 8 6 5 6 7 7 7 7 6 4 3 3 4 4 4 5 8 10 10 10 9 8 7 6 8 10 10 9 7 6 6 7 8 8 9 10 10 10 10 11 11 10 9 9 9 9 9 9 8 8 8
7 7 7 7 7 8 8 8 7 7 7 6 6 6 6 7 7 7 6 6 6 6 6 6 5 4 4 5 5 4 4 5 6 6 7 8 9 9 9 8 9 9 10 8 6 4 3 3 4 4 4 6 9 11 11 10 9 8 7 8 9 9 9 8 7 7 7 8 8 9 10 11 12 13 13 12 11 10 9 9 9 9 9 8 8 9
7 7 8 7 7 8 8 8 8 7 7 7 7 7 7 7 6 6 6 6 6 6 6 5 5 4 5 5 5 5 5 5 5 5 5 6 7 8 9 9 9 10 10 10 8 7 5 4 4 4 5 6 8 9 10 10 10 9 8 9 9 10 10 9 8 7 8 9 9 9 10 11 13 13 13 12 11 10 10 10 10 10 9 8 8 8
8 8 8 7 7 7 8 8 7 7 7 7 7 7 7 7 7 6 6 6 6 5 6 5 5 5 5 5 5 5 5 5 5 4 4 4 5 6 7 9 11 12 12 12 11 10 8 7 5 4 5 6 7 8 8 8 9 10 9 9 10 10 10 9 8 7 8 9 9 9 9 10 12 14 14 13 12 11 9 9 9 9 8 8 8 8
8 8 8 8 7 7 7 7 7 7 7 7 7 7 7 8 8 8 6 6 6 6 6 6 5 5 5 6 6 6 6 6 5 4 4 3 3 4 6 8 10 11 13 14 13 12 11 10 9 7 4 4 6 8 8 8 8 9 9 9 10 11 11 10 8 7 7 8 8 9 8 9 11 14 15 14 13 11 9 9 8 7 7 7 7 8
8 8 8 8 7 7 7 7 7 7 8 8 7 7 7 8 9 9 6 6 6 6 6 6 6 6 6 6 6 7 7 6 5 4 4 3 3 2 4 6 8 10 11 12 12 11 11 12 12 12 9 6 5 7 9 9 9 9 8 8 9 10 11 10 8 7 6 7 8 8 6 7 9 12 15 16 15 13 11 9 8 7 6 6 7 7
8 8 8 8 8 8 8 8 8 8 8 8 8 7 7 7 7 7 6 6 6 5 5 6 6 6 6 6 7 7 7 6 6 5 4 4 3 2 2 5 7 9 9 9 8 7 7 8 10 13 15 13 9 6 7 9 9 9 9 8 8 9 11 10 8 7 7 7 8 8 8 7 7 8 13 16 16 15 12 10 9 7 6 6 7 8
8 8 8 8 8 7 7 7 8 8 8 8 8 7 7 7 7 6 6 6 6 6 6 6 6 6 7 7 7 7 7 6 6 6 5 4 4 3 0 3 6 8 8 7 6 5 4 5 6 8 13 16 15 11 4 7 9 10 9 8 7 8 9 9 9 8 9 8 8 8 8 8 7 8 10 14 16 15 13 12 10 8 7 7 8 9
Wind_Direction
298 298 297 296 295 293 291 289 288 289 289 289 290 291 293 294 290 281 274 273 269 266 271 269 268 274 298 319 324 324 323 321 321 322 325 329 332 333 332 322 303 272 237 213 200 195 197 201 200 196 192 198 208 213 211 200 192 185 183 183 184 186 187 187 188 188 190 194 199 205 210 214 215 214 211 206 201 198 196 192 188 184 181 180 181 183
295 295 296 293 291 290 289 288 285 283 283 285 287 288 290 290 288 281 272 266 259 258 264 267 266 265 272 302 314 316 316 316 318 321 326 330 333 333 331 323 306 276 241 217 201 194 193 196 196 192 189 194 205 214 215 206 196 188 183 183 184 184 185 185 185 186 187 191 196 202 209 213 215 214 212 209 208 206 203 198 191 185 180 180 181 184
301 299 297 294 290 287 287 288 285 280 277 280 282 284 285 285 285 282 278 271 263 260 261 260 260 259 257 272 296 306 308 312 316 322 329 333 335 335 332 323 306 277 242 218 202 192 187 190 190 189 187 193 202 211 217 210 202 193 186 184 183 183 183 183 183 183 185 188 194 200 208 212 214 214 212 211 210 210 210 206 199 190 183 181 181 183
303 300 299 296 290 285 283 286 285 283 279 278 279 281 281 282 284 285 284 277 270 265 263 258 256 255 255 254 273 290 300 309 317 325 334 337 338 337 334 325 309 278 239 215 201 191 184 185 185 187 189 195 201 208 213 210 204 197 189 185 182 181 181 180 180 181 182 185 191 199 206 211 214 214 213 211 210 210 211 211 207 201 192 186 183 183
303 300 299 297 293 288 284 284 284 285 284 283 283 284 285 288 291 293 291 282 274 268 266 261 257 254 257 253 263 279 295 308 320 330 338 341 341 340 336 328 312 281 236 210 196 188 182 180 182 186 193 199 204 207 211 209 204 198 191 185 182 180 179 178 179 179 181 184 189 196 204 210 213 214 214 212 211 209 209 210 210 207 202 194 188 184
303 299 297 294 292 289 288 286 286 287 289 289 289 291 293 294 295 295 292 287 280 272 267 265 258 253 254 254 263 275 292 309 323 334 341 345 345 343 338 330 316 285 230 202 188 181 177 176 179 187 198 204 207 209 210 208 204 199 192 186 182 179 177 177 178 179 180 183 187 193 200 206 209 212 214 213 211 208 207 208 208 209 208 203 196 188
301 298 296 293 290 288 286 283 282 284 287 291 292 294 295 293 291 288 286 284 280 275 270 264 254 247 247 252 259 270 285 307 325 336 344 348 348 345 340 332 319 292 229 193 178 171 169 169 175 186 200 207 209 209 207 205 203 199 193 187 182 179 176 176 177 178 180 182 185 188 193 198 202 206 209 211 210 208 206 206 207 208 210 208 203 195
300 300 302 301 300 297 292 284 280 282 289 294 296 297 296 294 291 287 284 280 276 271 267 262 252 244 241 244 252 259 267 296 323 337 344 350 350 347 341 332 319 295 227 187 170 162 159 160 166 180 197 205 207 206 204 201 198 195 190 185 180 177 175 175 177 178 180 182 182 183 184 187 191 195 200 204 207 207 207 207 207 209 210 209 206 200
301 304 308 311 313 314 315 314 319 325 325 313 305 300 302 312 315 314 312 303 291 275 263 262 259 252 242 235 240 247 252 263 319 345 347 354 353 349 341 332 318 293 216 184 167 158 153 153 159 173 191 202 205 204 201 197 194 190 185 180 176 174 173 174 176 178 181 181 181 180 179 180 181 184 189 195 200 204 206 207 208 209 210 209 207 201
304 306 309 310 316 324 331 337 343 346 342 329 322 325 350 356 352 344 338 332 326 315 291 279 274 273 265 241 232 236 252 267 359 13 5 1 356 349 340 329 316 287 206 182 167 158 153 153 160 172 186 197 202 202 198 194 190 186 181 176 172 170 169 172 175 178 181 181 181 180 180 180 179 180 182 186 192 199 204 207 207 208 208 208 204 197
310 311 311 312 318 328 335 335 336 337 338 335 340 358 21 15 3 349 338 332 329 327 321 307 293 283 283 267 239 230 246 288 6 20 16 6 358 348 337 325 312 286 213 186 171 163 158 160 167 177 187 196 201 201 198 193 188 184 179 174 170 167 166 169 173 177 180 181 182 182 182 183 182 182 181 182 186 194 201 205 206 206 206 204 199 190
316 317 317 318 324 331 332 329 327 331 340 346 355 6 13 9 358 343 331 326 325 325 324 319 308 286 269 261 250 233 241 296 9 24 22 11 3 354 342 329 316 292 219 186 173 166 164 168 175 184 191 197 201 201 199 194 188 183 178 173 169 166 165 167 170 174 177 179 180 182 183 184 185 184 183 179 181 188 195 201 203 203 202 199 192 183
319 320 321 325 331 336 337 337 340 346 355 2 4 3 359 354 347 336 325 322 323 323 321 319 313 300 265 242 229 217 237 245 43 42 34 22 14 7 355 335 324 309 240 187 172 164 164 173 182 190 195 198 199 198 196 193 188 183 179 174 169 166 165 165 167 170 173 175 177 179 181 183 183 183 180 176 176 180 187 192 196 196 196 192 185 176
325 325 326 331 337 341 342 342 346 351 357 0 360 356 349 344 340 336 330 327 324 322 316 312 310 306 283 253 225 207 226 235 22 47 37 33 34 30 10 331 320 313 297 204 169 157 156 169 183 194 198 199 199 196 193 190 187 184 179 174 170 167 165 165 165 167 169 171 173 176 178 180 181 181 179 173 171 174 179 184 186 187 185 182 176 171
328 329 330 333 338 342 343 344 346 349 351 350 347 344 342 345 346 343 338 333 328 323 317 311 307 303 295 289 280 235 248 270 6 26 15 13 60 90 70 328 315 312 308 270 163 148 152 170 184 197 201 201 199 195 189 187 185 182 179 175 171 168 165 164 164 165 167 168 171 173 175 178 180 181 179 172 169 170 173 177 179 180 178 175 170 167
328 329 331 332 335 339 341 343 345 346 344 343 341 342 344 349 349 346 340 333 328 324 322 319 316 311 306 331 350 351 319 318 9 31 4 350 47 98 103 351 316 310 301 284 171 154 161 179 190 198 203 201 196 190 184 183 182 181 178 174 171 168 166 164 164 164 165 167 169 171 174 177 180 182 181 175 171 169 170 174 176 177 176 173 169 166
327 329 330 330 332 334 337 340 343 343 340 339 339 341 344 347 346 343 338 333 329 326 327 325 323 321 328 360 7 1 343 323 336 22 18 2 22 64 95 36 315 300 270 225 190 178 186 193 197 201 205 202 196 190 184 179 178 178 177 174 171 169 166 164 163 163 164 165 167 170 172 176 179 180 180 175 171 169 170 172 174 176 177 174 171 167
327 329 330 330 329 330 332 336 340 343 340 340 338 337 339 343 344 341 338 335 333 331 328 325 322 321 330 356 15 12 0 340 337 356 20 4 3 19 64 30 307 288 256 208 190 189 203 207 207 206 206 202 198 192 185 177 174 175 175 173 171 169 167 165 163 163 163 164 166 168 171 174 176 176 174 170 168 168 169 171 172 175 176 176 173 169
326 328 331 330 327 326 326 333 339 343 343 341 337 335 335 341 345 344 339 336 332 328 324 320 318 316 320 330 354 7 4 346 337 335 5 351 344 355 43 4 309 293 272 217 190 187 202 213 214 210 206 204 200 194 186 178 174 173 174 173 172 170 168 165 164 162 162 163 165 167 169 171 171 170 168 164 163 164 166 168 170 172 175 175 173 170
322 324 329 327 323 320 320 329 337 342 341 336 331 329 331 340 343 342 337 333 327 321 315 310 310 311 314 314 325 341 357 343 332 323 330 327 319 324 40 337 296 293 284 256 196 183 199 211 212 208 204 203 200 195 188 179 174 173 173 173 172 171 169 166 164 162 161 162 163 164 165 166 166 164 162 160 159 160 162 164 167 169 172 173 172 170
317 318 322 320 316 314 314 326 334 337 335 330 325 323 329 338 340 337 332 326 321 317 312 306 304 305 310 308 311 320 340 331 322 313 316 318 305 306 336 216 252 266 270 265 223 192 199 206 209 211 209 203 199 194 188 179 174 172 172 173 173 172 170 167 165 163 161 161 160 160 160 160 160 159 157 156 156 156 158 160 163 165 167 167 167 165
314 313 311 309 306 305 308 316 324 329 329 323 319 320 335 341 338 332 326 321 316 312 308 302 298 297 297 294 295 298 306 296 292 293 302 317 310 306 317 271 231 238 243 235 218 206 204 204 207 209 209 201 197 192 188 181 175 172 172 173 173 172 171 168 166 163 161 159 158 157 156 155 155 154 153 153 153 153 154 157 159 161 163 162 160 157
311 308 306 302 300 300 303 309 315 320 320 312 312 319 346 345 334 322 315 310 306 303 299 294 289 285 281 278 279 277 266 251 251 260 273 264 278 298 322 349 237 227 223 210 203 204 208 207 206 203 202 195 192 189 187 183 177 173 171 172 173 173 173 171 168 164 160 157 155 153 152 151 150 150 150 150 150 151 152 154 156 158 159 157 153 149
311 308 305 303 302 303 305 312 314 314 310 304 309 327 7 351 327 308 298 298 298 298 295 291 288 283 274 268 265 260 246 233 232 236 245 233 241 266 310 35 240 237 224 207 200 202 210 210 204 198 195 189 187 185 185 183 179 174 171 171 173 174 175 174 171 166 161 156 152 150 148 147 146 146 146 146 146 147 148 149 151 153 154 150 145 141
323 319 318 320 324 327 331 331 330 326 323 318 324 349 19 351 324 304 295 303 309 312 310 306 301 295 287 277 269 259 240 227 225 224 201 176 235 264 255 141 197 244 241 225 211 204 211 215 206 193 189 185 182 182 183 182 180 176 172 171 171 173 174 173 171 167 161 155 151 147 145 144 143 143 142 140 139 138 137 137 139 140 139 137 136 135
339 339 340 340 341 342 343 341 339 337 337 335 342 2 20 352 331 322 327 338 337 332 326 319 311 304 299 292 287 283 282 273 256 228 140 128 190 253 230 155 181 241 253 247 221 203 207 217 208 193 185 182 180 180 181 182 180 177 172 169 169 170 170 169 167 164 158 154 149 145 142 141 140 138 135 132 129 126 123 123 123 123 124 124 126 128
344 345 346 346 347 348 349 347 344 341 341 343 352 5 21 1 349 350 360 355 346 336 330 325 318 312 308 307 310 319 331 342 347 350 353 140 188 218 212 160 171 220 245 251 233 205 205 212 207 194 183 178 176 179 181 180 178 175 170 167 165 164 162 160 158 155 152 149 145 141 138 136 134 131 128 124 120 117 115 114 113 112 112 113 117 121
346 347 349 350 350 350 351 349 346 344 344 349 357 7 18 8 1 358 360 351 342 335 332 327 323 319 318 320 320 319 318 338 353 345 325 291 222 213 202 158 158 196 234 250 278 345 282 242 224 201 185 173 171 174 179 177 174 171 167 164 160 156 151 147 145 143 142 140 138 135 133 131 128 126 123 120 117 115 113 111 109 108 106 105 106 108
344 346 348 349 350 350 350 347 345 344 346 352 359 6 14 9 360 352 347 341 335 332 329 325 322 320 317 314 309 303 294 360 10 349 323 303 255 221 194 161 166 188 219 223 34 32 13 346 327 307 220 165 159 161 168 172 170 167 163 159 154 147 141 136 133 133 133 132 132 131 130 128 125 123 122 120 118 116 114 112 109 107 104 103 103 104
341 343 345 346 347 346 345 342 341 342 346 352 357 2 6 2 352 341 333 330 330 329 325 321 318 317 317 311 303 295 283 56 30 3 340 318 286 241 198 180 182 193 207 192 133 68 8 335 325 319 316 141 140 144 153 161 161 158 156 153 148 141 133 128 126 126 127 128 128 128 128 126 125 123 123 122 120 118 116 113 111 108 105 104 104 104
339 341 341 341 341 340 339 338 338 340 343 349 353 356 356 352 344 334 326 324 323 321 317 314 312 311 313 310 303 299 325 38 28 15 356 331 304 270 232 200 196 201 209 199 170 141 119 330 324 325 341 57 101 121 135 142 144 145 144 144 141 134 128 124 123 123 124 125 126 127 127 126 125 125 124 124 122 120 118 116 114 112 110 109 107 106
338 339 339 338 337 336 336 338 338 338 341 346 348 349 348 345 340 333 325 319 315 310 306 303 301 298 294 286 283 287 301 335 7 10 359 334 309 287 265 223 206 207 215 212 176 148 139 139 335 346 10 44 63 81 102 120 128 132 132 131 130 126 123 121 120 121 122 123 125 125 125 125 125 125 125 124 123 121 120 119 118 117 116 114 113 111
338 338 338 337 336 336 337 338 339 340 341 344 344 343 343 340 336 330 322 314 307 300 295 293 291 289 284 275 271 271 276 290 328 349 353 335 311 294 297 301 286 244 244 232 171 132 126 129 117 75 47 46 44 49 63 92 110 119 121 121 120 119 119 117 117 117 118 120 121 122 122 123 122 122 123 122 122 121 121 120 121 121 121 120 118 117
339 340 340 339 338 339 340 341 341 342 344 344 342 341 339 335 332 327 319 311 301 292 283 280 280 281 281 277 272 269 271 277 302 326 343 332 311 297 301 306 317 346 345 227 169 134 110 117 118 111 90 60 43 38 42 66 90 104 110 112 114 116 116 114 114 115 115 115 116 116 117 118 117 117 118 119 119 119 119 119 120 121 122 123 123 123
342 343 344 343 343 343 344 344 345 345 345 344 341 339 336 332 327 320 314 307 299 289 276 266 264 265 269 271 273 274 276 281 297 310 318 310 300 295 296 295 313 9 11 219 185 155 122 118 119 118 111 90 58 37 30 50 75 90 95 99 104 108 112 113 114 115 115 114 113 113 113 113 112 112 113 114 114 114 115 115 117 118 120 122 123 125
347 347 348 347 347 346 346 346 346 346 345 342 339 336 332 328 323 317 310 304 297 290 281 269 260 255 253 257 263 269 276 281 287 291 290 281 278 282 290 294 316 351 4 231 195 159 129 119 115 114 112 105 87 55 29 50 70 81 84 87 91 97 104 109 113 115 115 113 112 111 110 109 108 108 108 110 110 109 109 110 112 113 115 117 118 120
352 351 350 350 349 347 346 345 345 344 342 339 336 332 330 325 320 315 308 302 295 290 286 278 270 261 254 253 254 259 267 273 276 275 271 261 252 258 275 288 310 338 355 238 199 160 132 122 118 115 110 109 107 103 93 82 81 82 83 84 87 91 96 102 107 111 112 112 111 110 109 108 108 107 107 107 106 105 105 105 106 108 109 109 110 111
355 354 351 351 350 348 344 343 342 341 338 334 331 328 326 322 317 313 308 302 296 291 289 285 279 271 264 260 257 255 258 262 264 263 260 250 238 239 255 269 295 340 2 260 204 168 140 131 126 121 112 105 105 113 121 110 99 93 89 86 85 86 89 95 101 105 109 110 109 108 108 108 108 108 108 107 105 103 102 101 102 103 104 104 103 103
356 354 352 351 350 347 343 341 338 335 331 328 326 325 323 320 317 313 308 304 300 297 294 291 286 279 272 265 260 257 256 257 257 255 251 239 228 228 244 255 270 354 29 337 245 180 149 137 132 129 124 117 113 111 110 108 107 106 103 93 85 81 83 91 98 104 109 111 110 108 107 107 107 108 109 109 108 107 106 105 106 106 106 104 102 101
355 353 351 350 348 344 341 336 333 328 325 323 322 323 324 323 322 319 315 315 314 312 306 300 293 284 276 268 262 258 256 256 253 249 241 227 218 219 233 241 231 97 62 17 338 287 149 133 129 128 128 127 126 124 115 113 116 119 117 108 98 91 89 91 96 102 108 110 111 110 110 108 107 107 107 108 108 109 110 110 112 113 114 116 114 110
353 351 349 346 343 340 336 332 328 325 323 323 324 327 331 331 331 331 332 332 332 330 326 319 311 300 287 274 266 266 271 279 282 280 267 245 226 221 225 226 190 108 85 49 11 360 74 124 127 127 127 126 123 120 116 118 121 121 117 114 110 107 97 91 94 100 104 106 108 109 111 109 106 104 103 100 100 101 105 109 111 111 111 115 121 123
352 350 347 343 339 337 334 331 329 328 326 326 329 333 337 338 338 340 342 342 342 340 337 332 326 319 310 301 299 309 332 346 356 0 358 340 306 251 219 194 136 104 94 76 47 30 55 112 125 130 131 129 125 120 113 109 108 107 108 111 110 105 92 87 91 102 107 108 109 109 110 108 106 104 102 100 98 95 95 99 102 105 105 104 110 118
350 347 343 339 336 332 331 332 334 334 334 335 337 340 342 342 343 345 347 345 343 340 337 332 326 321 315 320 334 352 5 7 9 10 8 360 355 12 91 89 91 94 96 87 68 46 49 77 103 121 129 129 126 122 117 109 102 100 106 117 119 116 108 106 106 107 107 109 109 110 108 107 104 102 99 97 94 91 88 87 88 90 94 99 100 98
345 343 340 338 336 336 338 340 341 340 339 340 342 344 344 345 348 349 351 346 343 340 339 333 326 321 321 335 348 360 8 9 10 12 13 16 23 42 64 68 72 77 83 82 77 62 59 66 78 100 121 123 122 119 116 115 112 110 111 114 115 116 118 122 120 114 105 103 103 103 105 106 103 99 93 88 85 82 81 81 79 77 78 83 89 92
345 343 343 342 343 344 346 345 343 341 341 343 345 347 347 348 351 354 355 349 345 343 342 337 334 335 344 351 354 360 6 9 12 13 12 19 30 43 57 62 67 70 72 70 64 57 64 78 86 95 107 115 117 118 120 119 116 111 103 98 94 93 94 99 103 107 107 104 103 105 110 112 109 104 96 90 85 83 82 84 85 84 82 84 88 93
349 348 347 346 346 346 346 344 342 342 343 346 349 350 350 351 354 357 357 353 349 346 343 343 347 353 357 355 356 359 4 7 9 10 10 14 25 40 54 61 65 68 70 65 56 45 39 58 85 104 109 110 110 112 116 116 113 109 103 101 98 96 91 90 93 99 106 108 111 114 120 117 111 105 101 97 92 87 83 85 87 90 91 91 93 96
352 351 349 347 346 345 344 343 343 344 346 349 350 351 351 352 355 358 359 356 354 350 348 349 356 3 6 3 2 2 2 2 2 3 4 9 25 45 62 66 68 70 72 69 61 50 37 36 44 75 110 115 113 109 106 106 109 111 113 113 110 106 103 100 100 101 103 107 113 119 124 117 111 107 106 102 97 91 84 82 82 85 89 93 95 97
352 352 350 347 346 345 344 344 345 347 348 350 350 351 352 354 358 1 359 357 357 356 356 357 1 6 8 8 6 5 3 359 357 356 357 360 17 48 74 79 78 76 75 73 68 60 49 40 35 34 48 95 113 115 112 108 108 110 115 115 112 108 106 105 104 103 102 104 110 117 122 119 117 116 114 108 102 95 89 83 77 74 78 86 93 96
353 353 351 348 348 348 347 346 347 349 351 352 352 351 351 354 359 2 360 359 360 2 3 3 4 6 10 8 6 5 4 359 354 350 349 348 354 34 88 95 93 89 83 78 73 67 59 50 43 37 30 43 81 108 115 113 111 109 109 110 110 110 108 106 105 104 102 102 102 104 105 110 117 119 118 111 107 102 97 90 82 76 75 81 87 93
354 355 353 350 350 350 348 348 350 352 353 354 354 352 350 353 357 1 1 1 5 7 9 7 8 9 12 9 7 5 4 359 353 348 344 337 334 344 106 110 107 103 96 88 81 73 65 55 48 41 34 33 41 70 110 114 113 110 106 108 110 111 110 108 106 102 100 99 99 98 98 100 106 111 112 111 109 106 102 96 91 88 86 89 92 95
355 356 355 352 352 351 350 350 353 355 355 356 356 354 352 354 357 1 4 6 7 10 10 11 12 14 16 12 9 6 4 360 354 346 338 329 321 314 231 129 121 115 110 104 96 87 76 68 56 44 34 28 27 32 79 110 116 114 110 110 110 111 110 108 106 103 99 99 99 100 101 102 105 109 112 112 111 109 106 103 102 102 105 106 105 105